Wind_Speed
1 2 2 2 2 3 3 2 1 1 1 1 1 2 2 2 3 3 2 2 3 3 3 4 4 4 4 5 5 5 5 6 6 6 7 7 8 8 7 7 8 8 8 8 8 8 7 8 8
2 2 2 2 3 3 3 1 0 0 0 0 1 1 1 2 2 3 3 3 3 3 3 4 4 4 5 5 6 6 5 6 6 7 7 8 8 8 8 7 8 9 8 8 8 8 8 8 8
2 2 3 3 4 3 2 0 1 0 0 0 1 1 1 2 2 3 3 3 3 4 3 4 4 4 4 5 6 5 5 5 5 6 7 7 7 8 8 8 8 9 9 9 8 8 8 9 9
2 2 3 4 3 1 1 1 1 1 0 0 1 1 2 2 3 3 3 3 3 3 3 3 3 3 4 4 4 4 4 5 5 6 6 7 8 8 8 9 8 9 9 9 9 9 9 9 10
2 3 3 3 3 1 1 2 2 1 1 0 1 1 2 2 2 3 2 2 2 2 3 3 3 3 3 3 3 3 3 4 5 5 6 7 8 8 8 9 9 8 9 10 10 10 10 10 10
4 3 3 3 2 0 1 1 2 2 1 1 1 1 2 2 2 2 2 2 2 2 2 2 3 3 3 3 2 2 3 3 3 4 5 6 7 7 8 8 9 9 9 9 10 10 10 10 10
4 4 3 2 2 0 1 1 1 1 1 1 1 1 2 2 2 2 2 2 2 3 2 2 2 2 2 1 1 2 2 3 4 4 5 5 6 6 6 7 7 8 8 8 9 9 9 10 10
3 4 3 2 2 1 1 1 1 1 1 1 2 2 2 3 2 3 3 2 2 3 3 2 2 2 1 1 2 2 2 3 3 4 4 5 5 5 6 6 6 6 7 7 8 9 9 9 10
3 4 3 2 2 1 1 2 1 1 2 2 2 2 3 3 3 3 3 3 3 3 3 3 2 1 2 2 2 2 3 3 3 3 3 4 4 4 5 5 6 6 7 7 8 8 8 9 9
4 3 2 2 2 1 1 1 1 1 2 2 2 2 3 3 3 3 3 3 3 3 2 2 1 1 2 2 3 3 3 3 3 3 3 3 4 4 4 5 6 7 7 7 7 7 7 8 9
4 3 3 2 2 1 1 1 1 1 1 2 2 3 3 3 3 2 2 2 2 2 1 1 1 1 2 2 2 3 3 3 3 3 3 3 4 4 5 5 6 6 6 6 7 7 8 8 9
4 3 3 2 2 2 2 2 2 2 2 2 3 3 3 3 3 3 3 2 1 1 1 1 2 2 3 3 3 3 3 3 3 3 3 3 3 4 5 5 6 6 7 7 7 7 8 8 9
3 3 3 3 3 3 3 2 2 3 3 3 3 3 3 3 3 3 2 1 0 1 1 2 2 2 3 3 3 4 3 4 4 3 4 4 4 5 5 6 6 7 7 7 7 8 8 9 9
4 4 4 4 4 4 3 4 3 3 3 3 3 3 3 3 3 2 2 2 1 1 1 2 2 3 3 3 3 4 4 4 4 4 5 5 5 6 6 6 6 7 7 7 8 8 8 8 8
5 5 5 5 4 4 4 4 3 2 3 3 3 4 3 2 2 2 2 2 2 1 1 2 2 3 3 3 4 4 5 5 5 5 6 6 6 6 7 7 7 7 8 8 8 8 8 8 8
6 6 6 6 5 5 5 5 4 3 4 3 3 3 4 3 3 3 3 2 2 2 2 2 3 3 4 4 4 5 5 6 6 6 7 7 8 8 8 8 8 8 9 9 9 8 8 9 9
8 7 7 7 6 5 6 5 5 5 5 5 4 4 4 4 3 3 3 3 3 3 3 3 4 4 5 5 5 6 6 7 7 8 8 9 9 9 9 9 9 9 10 10 10 9 9 9 9
9 8 8 8 7 7 7 6 6 6 6 6 6 5 5 4 4 4 4 4 4 4 5 5 5 5 6 6 6 7 8 8 9 9 9 10 10 10 10 11 11 11 11 11 11 11 10 10 10
10 9 9 8 8 7 7 7 6 7 7 6 6 6 6 5 5 5 5 5 5 6 6 6 5 6 6 7 8 8 9 9 10 10 11 11 11 12 12 12 12 12 12 12 11 11 11 11 11
11 10 10 9 9 8 8 8 7 7 7 7 7 7 6 5 5 5 6 6 6 6 6 7 7 7 8 8 9 9 10 10 10 11 11 12 12 13 12 12 12 12 12 12 12 11 11 11 12
12 11 10 10 10 10 9 8 8 8 7 8 8 7 7 6 6 6 6 6 6 6 7 7 8 8 9 10 10 10 11 12 12 12 13 13 13 13 13 13 14 14 13 13 12 12 12 12 13
12 12 12 11 11 11 11 10 9 8 8 8 8 7 7 7 6 7 7 7 8 8 8 9 10 10 10 11 11 11 12 12 13 13 13 13 14 14 14 14 15 15 14 14 13 13 13 14 14
12 12 13 13 12 12 12 12 10 9 9 9 8 8 8 8 7 8 8 9 9 9 9 9 10 11 11 12 12 12 13 13 13 14 14 14 15 15 15 15 16 16 16 15 15 15 15 15 15
13 13 13 14 14 14 13 13 12 11 10 9 8 9 9 9 9 9 10 10 10 11 11 11 11 12 13 13 13 13 13 14 14 14 15 15 16 16 16 16 17 16 16 16 16 16 16 16 16
14 14 14 14 14 14 14 15 13 11 10 9 9 9 10 11 11 10 11 11 12 12 13 13 13 14 14 14 14 14 14 14 15 15 16 17 17 17 17 17 17 17 17 17 17 17 17 17 17
15 15 16 16 16 15 15 15 14 11 10 10 10 10 11 11 11 11 12 12 13 13 14 15 15 15 15 15 16 16 15 15 16 17 17 18 18 18 18 18 18 17 17 17 18 18 18 18 17
15 15 16 17 17 17 16 15 14 12 10 10 10 10 11 11 11 12 12 13 13 14 15 15 15 15 16 16 16 17 16 16 17 17 17 18 18 18 18 17 17 17 17 18 18 18 18 19 18
15 16 16 17 18 18 17 16 15 13 12 10 11 11 11 11 12 13 14 14 14 15 15 15 16 17 17 17 17 17 17 16 16 16 17 17 17 17 17 17 17 17 18 18 18 19 19 19 19
16 17 18 18 19 19 18 16 15 14 12 12 12 13 12 12 12 14 14 15 16 16 16 17 17 18 18 18 17 17 16 16 16 16 17 18 18 18 18 18 18 18 18 18 19 19 19 19 19
17 17 18 19 20 19 18 16 15 15 14 14 14 14 14 14 14 15 16 16 17 17 17 18 18 18 18 17 17 16 16 16 16 17 18 18 18 18 18 18 19 19 19 19 20 19 19 20 20
Wind_Direction
283 271 259 248 244 255 260 264 272 287 268 310 306 310 316 324 332 330 330 316 311 304 295 285 281 277 273 267 265 274 267 262 258 256 252 250 250 250 247 241 237 236 239 238 234 237 239 238 237
294 303 283 257 243 260 273 269 291 308 223 75 303 309 323 329 331 340 343 329 323 312 305 294 285 280 276 271 271 271 267 267 261 259 255 251 249 249 248 242 240 239 242 243 241 243 242 240 240
297 300 289 276 266 267 272 257 65 57 73 279 280 305 317 321 317 324 346 335 329 321 309 298 292 286 282 275 270 264 265 262 262 259 256 251 249 250 250 247 245 243 245 245 242 243 247 245 244
294 293 280 272 271 282 305 69 71 49 36 232 281 316 314 317 322 324 340 336 334 334 326 308 301 298 291 279 269 266 264 258 258 260 258 252 250 251 251 251 246 245 245 247 245 242 244 247 251
284 275 275 282 285 280 105 88 75 46 40 340 316 320 314 314 329 335 338 341 339 340 336 327 320 303 292 282 277 280 270 267 268 262 254 251 256 254 258 254 248 250 250 249 250 248 249 251 252
263 264 277 289 308 339 104 95 67 47 33 317 289 310 319 320 331 326 323 339 336 330 325 326 330 319 296 285 287 285 281 274 270 265 258 257 258 260 260 259 254 254 257 261 257 255 253 251 248
267 262 255 279 308 327 76 72 47 43 19 356 320 325 323 321 323 315 310 322 327 321 313 309 315 312 303 303 312 301 290 277 275 271 266 262 260 257 257 258 256 259 264 266 262 256 253 251 249
256 254 252 261 280 319 73 59 32 14 18 13 350 341 321 311 310 310 306 309 309 315 315 301 304 306 320 324 326 314 308 295 284 278 275 269 267 259 257 258 258 262 267 267 261 255 251 249 250
248 248 256 255 280 301 77 74 27 350 9 11 356 336 315 302 301 305 296 296 293 295 303 298 291 296 306 307 320 318 306 307 305 291 284 281 272 267 263 261 261 260 263 263 262 263 261 257 255
242 246 252 263 303 305 53 71 35 350 6 7 1 342 333 317 310 312 309 307 297 280 275 273 279 265 278 295 298 302 308 312 311 301 291 288 282 278 274 268 267 267 268 268 268 267 265 263 261
240 249 245 249 276 286 281 300 332 346 357 356 346 341 343 333 323 309 309 303 287 281 270 276 269 280 283 291 296 296 310 318 321 313 299 296 285 278 280 279 278 279 280 276 273 271 267 263 259
243 243 244 247 254 267 281 297 320 321 318 324 328 328 331 326 321 310 296 290 254 246 283 320 345 333 326 320 316 321 336 338 334 331 320 306 301 296 294 292 285 282 278 277 276 274 271 270 266
242 249 250 252 263 273 285 294 295 288 297 301 311 316 325 320 316 325 319 304 270 233 277 305 324 321 322 328 330 331 333 324 318 312 300 297 299 298 294 293 292 288 285 283 278 276 276 274 270
245 248 255 252 261 271 281 289 293 293 298 302 313 329 333 329 321 318 329 351 21 346 299 310 318 311 309 318 325 327 322 317 317 313 303 299 298 298 297 296 297 293 290 287 282 277 272 268 264
251 252 253 254 261 270 274 279 287 297 289 296 307 319 323 326 317 314 319 335 2 357 321 313 315 314 314 318 320 320 322 322 320 314 309 304 299 299 297 294 293 289 290 290 285 275 269 267 265
251 251 251 250 257 261 265 273 279 279 276 283 302 315 312 315 318 308 309 317 318 323 319 312 317 317 317 319 314 312 316 317 313 307 305 303 300 298 297 294 292 289 289 289 283 275 271 272 270
250 251 250 252 254 254 254 259 269 274 270 274 283 298 303 308 305 300 295 291 284 292 303 308 308 310 314 315 315 314 314 315 311 305 302 302 301 299 298 297 295 291 289 288 283 280 279 276 274
252 250 252 253 254 259 260 260 262 271 276 271 272 284 291 297 290 287 293 288 278 278 285 297 300 305 309 309 312 314 312 313 311 308 305 303 301 298 297 296 295 293 290 287 282 278 277 275 274
254 257 257 257 254 257 262 265 266 269 273 273 272 278 284 289 286 283 284 284 282 280 280 287 296 305 308 310 310 313 313 313 312 311 307 303 302 298 296 296 292 290 289 286 282 278 277 275 273
254 257 258 257 255 256 256 260 265 267 270 269 272 274 283 281 285 281 279 276 274 278 281 284 288 297 306 309 308 310 311 309 310 309 308 304 303 301 297 296 293 290 288 285 282 279 278 278 277
252 255 257 257 257 259 259 259 264 265 270 273 275 274 279 283 285 283 276 277 275 274 280 284 288 292 297 301 303 305 306 306 306 307 307 304 302 301 298 294 292 290 286 283 282 278 276 278 279
251 254 255 257 258 261 260 259 260 263 264 269 270 270 272 279 279 283 279 281 281 280 279 282 284 285 291 296 299 299 299 301 303 304 303 300 299 298 296 293 291 290 286 282 279 279 277 278 279
253 251 253 256 257 259 260 263 260 263 265 267 266 266 270 274 276 280 278 280 281 281 280 281 287 288 291 293 294 294 296 297 299 299 300 299 299 298 296 294 291 288 284 282 278 276 275 276 276
251 252 254 257 258 258 259 263 261 263 266 267 264 265 270 276 279 278 279 280 282 282 283 283 287 290 292 292 292 290 291 294 295 297 297 298 298 296 294 292 290 286 284 282 279 275 275 276 275
248 251 253 255 255 257 260 262 261 263 264 265 264 265 268 272 277 276 275 277 282 283 283 285 287 289 291 293 292 292 291 292 293 294 296 296 296 294 291 290 288 285 283 281 278 277 275 276 275
247 249 252 256 257 257 261 262 264 267 268 265 263 264 265 268 272 274 275 277 279 282 284 286 287 288 290 291 292 294 295 293 293 293 294 295 294 292 291 289 287 283 282 281 279 279 277 276 274
248 249 252 254 257 258 259 263 264 259 260 259 259 262 266 270 272 274 275 276 276 279 283 286 287 288 290 291 292 294 295 296 296 296 295 295 294 293 292 291 288 286 284 283 281 279 278 277 275
249 251 251 252 255 257 260 262 264 262 256 260 262 264 267 271 273 274 275 276 277 280 284 287 287 289 291 291 292 293 293 294 295 296 300 300 299 297 295 293 291 288 286 283 281 280 279 277 275
250 250 251 254 256 258 261 264 265 264 260 264 266 267 270 270 271 275 278 279 280 281 285 286 288 289 288 289 289 290 291 292 295 299 300 299 297 295 293 292 290 288 287 284 282 281 278 276 274
251 252 253 254 257 260 262 261 261 261 261 262 265 268 269 271 272 274 277 280 280 280 282 284 285 286 286 287 288 287 287 291 295 298 300 299 296 294 293 291 288 287 285 283 282 280 279 277 274
Height
5871 5870 5871 5871 5871 5870 5869 5870 5869 5869 5869 5869 5868 5868 5868 5868 5869 5870 5868 5866 5865 5865 5865 5864 5864 5864 5865 5865 5865 5865 5865 5865 5865 5865 5865 5866 5866 5866 5867 5867 5867 5867 5867 5867 5868 5868 5868 5868 5868
5870 5870 5871 5871 5870 5869 5869 5869 5868 5868 5868 5868 5868 5868 5868 5867 5867 5866 5865 5865 5864 5864 5864 5864 5863 5863 5863 5864 5864 5864 5863 5864 5864 5864 5864 5865 5865 5865 5865 5866 5866 5866 5866 5866 5866 5866 5867 5867 5867
5870 5870 5870 5869 5869 5869 5869 5868 5868 5867 5868 5868 5867 5867 5867 5867 5866 5865 5865 5864 5864 5863 5863 5863 5862 5862 5862 5862 5862 5862 5862 5862 5862 5863 5863 5863 5863 5864 5864 5864 5864 5865 5865 5865 5865 5865 5865 5865 5865
5870 5870 5870 5869 5868 5868 5868 5868 5867 5867 5867 5867 5867 5867 5866 5866 5865 5864 5864 5863 5863 5862 5862 5862 5862 5861 5861 5861 5861 5861 5861 5861 5861 5861 5862 5862 5862 5862 5863 5863 5863 5863 5863 5863 5863 5864 5864 5864 5864
5869 5869 5869 5868 5867 5868 5867 5867 5867 5867 5867 5866 5866 5866 5866 5865 5864 5863 5863 5863 5862 5862 5861 5861 5861 5860 5860 5860 5860 5860 5860 5860 5860 5860 5860 5860 5861 5861 5861 5861 5861 5861 5861 5862 5862 5862 5862 5862 5862
5869 5868 5868 5868 5867 5867 5867 5866 5866 5866 5866 5866 5866 5866 5865 5865 5864 5863 5862 5862 5862 5861 5861 5860 5860 5859 5859 5859 5859 5859 5859 5858 5859 5859 5859 5859 5859 5859 5859 5859 5859 5859 5859 5859 5859 5859 5859 5860 5860
5868 5867 5867 5867 5866 5866 5866 5866 5866 5866 5866 5865 5865 5865 5864 5864 5863 5862 5862 5862 5861 5861 5860 5860 5859 5859 5858 5858 5858 5858 5858 5858 5857 5857 5857 5857 5857 5857 5857 5857 5858 5858 5857 5857 5857 5857 5857 5857 5857
5866 5866 5865 5866 5866 5866 5866 5865 5865 5865 5865 5864 5864 5864 5863 5863 5862 5862 5861 5861 5860 5860 5859 5859 5859 5858 5858 5858 5857 5857 5857 5857 5856 5856 5856 5856 5856 5856 5856 5856 5856 5856 5856 5855 5855 5855 5855 5855 5855
5865 5866 5865 5865 5865 5865 5865 5865 5865 5864 5864 5864 5863 5863 5863 5862 5862 5861 5861 5860 5860 5859 5859 5858 5858 5857 5857 5857 5857 5856 5856 5856 5855 5855 5855 5854 5854 5854 5854 5854 5854 5854 5854 5854 5854 5853 5853 5853 5854
5864 5865 5865 5865 5865 5865 5864 5864 5864 5864 5863 5863 5863 5862 5862 5861 5861 5860 5860 5859 5859 5858 5858 5858 5857 5857 5856 5856 5856 5855 5855 5854 5854 5854 5853 5853 5853 5853 5853 5853 5853 5852 5852 5852 5852 5852 5852 5852 5852
5864 5864 5864 5864 5864 5864 5864 5864 5864 5863 5863 5863 5862 5861 5861 5860 5860 5859 5859 5859 5858 5857 5857 5857 5856 5856 5856 5855 5855 5854 5854 5853 5853 5852 5852 5852 5852 5851 5851 5851 5851 5850 5850 5850 5850 5850 5850 5850 5850
5863 5863 5863 5863 5863 5863 5863 5863 5863 5863 5863 5862 5861 5860 5860 5859 5859 5858 5858 5858 5857 5857 5856 5856 5856 5855 5855 5854 5854 5853 5853 5852 5852 5851 5851 5851 5850 5850 5850 5849 5849 5849 5848 5848 5848 5848 5848 5848 5847
5862 5862 5862 5862 5862 5862 5862 5862 5862 5862 5861 5860 5860 5860 5859 5858 5858 5857 5857 5857 5857 5856 5856 5855 5855 5854 5854 5853 5853 5852 5852 5851 5851 5850 5850 5849 5849 5849 5848 5847 5847 5847 5847 5846 5846 5846 5845 5845 5845
5861 5861 5861 5861 5860 5860 5860 5860 5860 5860 5859 5859 5859 5859 5858 5858 5857 5857 5856 5856 5856 5855 5855 5855 5854 5854 5853 5852 5852 5851 5851 5850 5849 5849 5848 5848 5847 5847 5846 5846 5845 5845 5845 5844 5844 5844 5843 5843 5843
5859 5860 5859 5859 5859 5859 5859 5859 5859 5859 5858 5858 5858 5857 5857 5857 5856 5856 5855 5855 5855 5855 5854 5854 5853 5853 5852 5852 5851 5850 5849 5849 5848 5847 5846 5846 5845 5845 5844 5844 5843 5843 5842 5842 5842 5841 5841 5841 5841
5857 5858 5858 5858 5857 5858 5859 5858 5858 5857 5857 5857 5857 5856 5856 5855 5855 5855 5855 5854 5854 5854 5853 5853 5852 5852 5851 5850 5849 5849 5848 5847 5846 5845 5845 5844 5843 5843 5842 5842 5841 5841 5840 5840 5839 5839 5839 5839 5838
5855 5855 5855 5856 5856 5856 5856 5856 5857 5856 5855 5855 5855 5855 5855 5854 5854 5854 5853 5853 5853 5852 5852 5852 5851 5850 5849 5849 5848 5847 5846 5845 5844 5843 5842 5842 5841 5840 5840 5839 5839 5838 5837 5837 5837 5836 5836 5836 5836
5853 5853 5853 5853 5853 5854 5853 5854 5854 5854 5854 5853 5853 5853 5853 5853 5853 5852 5852 5852 5851 5851 5851 5850 5849 5849 5848 5847 5846 5845 5844 5843 5842 5841 5840 5839 5838 5838 5837 5837 5836 5835 5835 5834 5834 5833 5833 5833 5833
5850 5850 5850 5851 5851 5851 5851 5851 5852 5851 5851 5851 5851 5851 5851 5851 5851 5851 5850 5850 5850 5849 5849 5848 5848 5847 5846 5845 5844 5843 5842 5841 5840 5839 5837 5836 5836 5835 5834 5833 5833 5832 5831 5831 5831 5830 5830 5830 5830
5847 5847 5847 5848 5848 5848 5848 5848 5849 5849 5849 5849 5849 5849 5849 5849 5849 5849 5848 5848 5848 5847 5847 5847 5846 5845 5844 5843 5842 5841 5840 5839 5837 5836 5835 5834 5832 5832 5831 5830 5829 5829 5828 5827 5827 5827 5826 5826 5826
5843 5844 5845 5845 5845 5845 5846 5846 5846 5846 5846 5846 5846 5846 5846 5846 5846 5846 5846 5846 5846 5845 5845 5844 5844 5843 5842 5841 5840 5839 5838 5836 5835 5833 5832 5830 5829 5828 5827 5826 5825 5825 5824 5824 5823 5823 5823 5822 5822
5840 5841 5841 5842 5842 5842 5843 5843 5844 5844 5844 5844 5843 5843 5844 5844 5844 5843 5843 5843 5843 5843 5843 5842 5842 5841 5840 5838 5837 5836 5835 5833 5832 5830 5829 5827 5826 5825 5823 5822 5821 5820 5820 5820 5819 5819 5819 5819 5818
5837 5837 5838 5838 5838 5839 5839 5839 5840 5840 5840 5841 5841 5841 5841 5841 5841 5841 5841 5841 5841 5840 5840 5839 5839 5838 5837 5835 5834 5833 5832 5830 5829 5827 5826 5824 5823 5821 5820 5818 5817 5816 5815 5815 5815 5814 5814 5814 5814
5833 5834 5834 5834 5834 5835 5835 5835 5836 5837 5837 5838 5838 5838 5838 5838 5838 5838 5838 5838 5838 5837 5837 5836 5836 5835 5833 5832 5831 5830 5828 5827 5825 5824 5822 5821 5819 5817 5815 5814 5813 5812 5811 5810 5810 5809 5809 5809 5809
5829 5830 5830 5830 5830 5831 5831 5830 5833 5833 5834 5834 5834 5834 5835 5835 5835 5835 5835 5835 5834 5834 5834 5833 5832 5831 5830 5829 5827 5826 5824 5823 5821 5820 5818 5817 5815 5813 5811 5809 5808 5807 5806 5806 5805 5804 5804 5804 5803
5825 5826 5827 5827 5827 5827 5827 5827 5829 5830 5830 5830 5831 5831 5831 5832 5832 5831 5831 5831 5831 5830 5830 5829 5828 5827 5826 5825 5823 5822 5820 5818 5817 5815 5814 5812 5810 5808 5806 5805 5803 5802 5801 5801 5800 5799 5799 5798 5798
5821 5821 5823 5823 5822 5822 5823 5824 5825 5826 5826 5826 5827 5827 5827 5828 5828 5828 5828 5827 5827 5826 5826 5825 5824 5823 5822 5820 5819 5817 5815 5814 5812 5811 5809 5807 5805 5803 5801 5800 5798 5797 5796 5795 5794 5793 5793 5793 5792
5817 5817 5818 5817 5818 5818 5819 5819 5821 5821 5822 5823 5823 5823 5824 5824 5824 5824 5823 5823 5823 5822 5821 5820 5819 5818 5817 5815 5814 5812 5811 5809 5808 5806 5804 5802 5800 5798 5796 5795 5793 5792 5791 5790 5789 5788 5787 5787 5787
5813 5813 5813 5813 5813 5814 5814 5818 5817 5817 5818 5819 5819 5819 5820 5820 5820 5820 5819 5819 5818 5817 5816 5815 5814 5813 5812 5810 5809 5807 5806 5805 5803 5801 5799 5797 5795 5793 5792 5790 5788 5787 5785 5784 5783 5782 5782 5781 5781
5807 5808 5808 5809 5809 5809 5810 5814 5812 5813 5813 5814 5815 5815 5815 5815 5815 5815 5815 5814 5813 5812 5811 5810 5809 5808 5806 5805 5803 5802 5801 5800 5798 5797 5795 5792 5790 5788 5787 5785 5783 5782 5780 5779 5777 5776 5776 5775 5775